Time,TemperatureF,DewpointF,PressureIn,WindDirection,WindDirectionDegrees,WindSpeedMPH,WindSpeedGustMPH,Humidity,HourlyPrecipIn,Conditions,Clouds,dailyrainin,SoftwareType,DateUTC
2013-02-27 00:00:00,61.0,36.6,29.65,North,0,0.0,0.0,40,0.00,,,0.86,WUHU216HW,2013-02-27 05:00:00,
2013-02-27 00:05:00,60.8,36.4,29.65,North,0,0.0,0.0,40,0.00,,,0.00,WUHU216HW,2013-02-27 05:05:00,
2013-02-27 00:10:00,60.7,36.2,29.65,North,0,0.0,0.0,40,0.00,,,0.00,WUHU216HW,2013-02-27 05:10:00,
2013-02-27 00:15:00,60.5,36.0,29.65,North,0,0.0,0.0,40,0.00,,,0.00,WUHU216HW,2013-02-27 05:15:00,
2013-02-27 00:20:00,60.1,35.7,29.66,North,0,0.0,0.0,40,0.00,,,0.00,WUHU216HW,2013-02-27 05:20:00,
2013-02-27 00:26:00,59.9,35.6,29.66,North,0,0.0,0.0,40,0.00,,,0.00,WUHU216HW,2013-02-27 05:26:00,
2013-02-27 00:31:00,59.6,35.8,29.66,North,0,0.0,0.0,41,0.00,,,0.00,WUHU216HW,2013-02-27 05:31:00,
2013-02-27 00:36:00,59.4,35.6,29.66,North,0,0.0,0.0,41,0.00,,,0.00,WUHU216HW,2013-02-27 05:36:00,
2013-02-27 00:41:00,59.0,35.3,29.66,North,0,0.0,0.0,41,0.00,,,0.00,WUHU216HW,2013-02-27 05:41:00,
2013-02-27 00:46:00,58.9,35.2,29.67,North,0,0.0,0.0,41,0.00,,,0.00,WUHU216HW,2013-02-27 05:46:00,
2013-02-27 00:51:00,58.7,35.0,29.67,North,0,0.0,0.0,41,0.00,,,0.00,WUHU216HW,2013-02-27 05:51:00,
2013-02-27 00:56:00,58.7,35.0,29.67,North,0,0.0,0.0,41,0.00,,,0.00,WUHU216HW,2013-02-27 05:56:00,
2013-02-27 01:01:00,58.5,34.8,29.67,North,0,0.0,0.0,41,0.00,,,0.00,WUHU216HW,2013-02-27 06:01:00,
2013-02-27 01:06:00,58.3,34.7,29.67,North,0,0.0,0.0,41,0.00,,,0.00,WUHU216HW,2013-02-27 06:06:00,
2013-02-27 01:11:00,58.3,34.7,29.67,North,0,0.0,0.0,41,0.00,,,0.00,WUHU216HW,2013-02-27 06:11:00,
2013-02-27 01:16:00,58.1,34.5,29.67,North,0,0.0,0.0,41,0.00,,,0.00,WUHU216HW,2013-02-27 06:16:00,
2013-02-27 01:21:00,58.0,34.4,29.67,North,0,0.0,0.0,41,0.00,,,0.00,WUHU216HW,2013-02-27 06:21:00,
2013-02-27 01:26:00,58.0,34.4,29.68,North,0,0.0,0.0,41,0.00,,,0.00,WUHU216HW,2013-02-27 06:26:00,
2013-02-27 01:31:00,58.0,34.4,29.67,North,0,0.0,0.0,41,0.00,,,0.00,WUHU216HW,2013-02-27 06:31:00,
2013-02-27 01:36:00,57.8,34.2,29.67,North,0,0.0,0.0,41,0.00,,,0.00,WUHU216HW,2013-02-27 06:36:00,
2013-02-27 01:42:00,57.6,34.0,29.68,North,0,0.0,0.0,41,0.00,,,0.00,WUHU216HW,2013-02-27 06:42:00,
2013-02-27 01:47:00,57.4,33.8,29.68,North,0,0.0,0.0,41,0.00,,,0.00,WUHU216HW,2013-02-27 06:47:00,
2013-02-27 01:52:00,57.4,33.8,29.68,North,0,0.0,0.0,41,0.00,,,0.00,WUHU216HW,2013-02-27 06:52:00,
2013-02-27 01:57:00,57.2,33.7,29.68,North,0,0.0,0.0,41,0.00,,,0.00,WUHU216HW,2013-02-27 06:57:00,
2013-02-27 02:02:00,57.2,33.7,29.68,North,0,0.0,0.0,41,0.00,,,0.00,WUHU216HW,2013-02-27 07:02:00,
2013-02-27 02:07:00,57.2,33.7,29.68,North,0,0.0,0.0,41,0.00,,,0.00,WUHU216HW,2013-02-27 07:07:00,
2013-02-27 02:12:00,57.2,33.7,29.68,North,0,0.0,0.0,41,0.00,,,0.00,WUHU216HW,2013-02-27 07:12:00,
2013-02-27 02:17:00,57.2,33.7,29.69,North,0,0.0,0.0,41,0.00,,,0.00,WUHU216HW,2013-02-27 07:17:00,
2013-02-27 02:22:00,57.2,33.7,29.68,North,0,0.0,0.0,41,0.00,,,0.00,WUHU216HW,2013-02-27 07:22:00,
2013-02-27 02:27:00,57.2,33.7,29.69,North,0,0.0,0.0,41,0.00,,,0.00,WUHU216HW,2013-02-27 07:27:00,
2013-02-27 02:32:00,57.1,33.6,29.69,North,0,0.0,0.0,41,0.00,,,0.00,WUHU216HW,2013-02-27 07:32:00,
2013-02-27 02:37:00,56.7,33.2,29.69,North,0,0.0,0.0,41,0.00,,,0.00,WUHU216HW,2013-02-27 07:37:00,
2013-02-27 02:42:00,56.5,33.0,29.69,North,0,0.0,0.0,41,0.00,,,0.00,WUHU216HW,2013-02-27 07:42:00,
2013-02-27 02:47:00,56.5,33.0,29.69,North,0,0.0,0.0,41,0.00,,,0.00,WUHU216HW,2013-02-27 07:47:00,
2013-02-27 02:52:00,56.3,32.9,29.69,North,0,0.0,0.0,41,0.00,,,0.00,WUHU216HW,2013-02-27 07:52:00,
2013-02-27 02:57:00,56.3,33.5,29.70,North,0,0.0,0.0,42,0.00,,,0.00,WUHU216HW,2013-02-27 07:57:00,
2013-02-27 03:02:00,56.2,33.8,29.70,North,0,0.0,0.0,43,0.00,,,0.00,WUHU216HW,2013-02-27 08:02:00,
2013-02-27 03:07:00,56.0,33.7,29.70,North,0,0.0,0.0,43,0.00,,,0.00,WUHU216HW,2013-02-27 08:07:00,
2013-02-27 03:12:00,55.8,34.1,29.70,North,0,0.0,0.0,44,0.00,,,0.00,WUHU216HW,2013-02-27 08:12:00,
2013-02-27 03:17:00,55.8,34.1,29.70,North,0,0.0,0.0,44,0.00,,,0.00,WUHU216HW,2013-02-27 08:17:00,
2013-02-27 03:22:00,55.4,34.3,29.70,North,0,0.0,0.0,45,0.00,,,0.00,WUHU216HW,2013-02-27 08:22:00,
2013-02-27 03:28:00,55.3,33.6,29.71,North,0,0.0,0.0,44,0.00,,,0.00,WUHU216HW,2013-02-27 08:28:00,
2013-02-27 03:33:00,55.1,34.6,29.71,North,0,0.0,0.0,46,0.00,,,0.00,WUHU216HW,2013-02-27 08:33:00,
2013-02-27 03:38:00,54.7,34.2,29.71,North,0,0.0,0.0,46,0.00,,,0.00,WUHU216HW,2013-02-27 08:38:00,
2013-02-27 03:43:00,54.4,33.8,29.71,North,0,0.0,0.0,46,0.00,,,0.00,WUHU216HW,2013-02-27 08:43:00,
2013-02-27 03:48:00,54.2,33.8,29.71,North,0,0.0,0.0,46,0.00,,,0.00,WUHU216HW,2013-02-27 08:48:00,
2013-02-27 03:53:00,54.0,33.6,29.72,North,0,0.0,0.0,46,0.00,,,0.00,WUHU216HW,2013-02-27 08:53:00,
2013-02-27 03:58:00,53.6,33.2,29.72,North,0,0.0,0.0,46,0.00,,,0.00,WUHU216HW,2013-02-27 08:58:00,
2013-02-27 04:03:00,53.5,33.0,29.73,North,0,0.0,0.0,46,0.00,,,0.00,WUHU216HW,2013-02-27 09:03:00,
2013-02-27 04:08:00,53.3,33.0,29.73,North,0,0.0,0.0,46,0.00,,,0.00,WUHU216HW,2013-02-27 09:08:00,
2013-02-27 04:13:00,52.9,32.6,29.74,North,0,0.0,0.0,46,0.00,,,0.00,WUHU216HW,2013-02-27 09:13:00,
2013-02-27 04:18:00,52.7,32.4,29.74,North,0,0.0,0.0,46,0.00,,,0.00,WUHU216HW,2013-02-27 09:18:00,
2013-02-27 04:23:00,52.6,32.9,29.74,North,0,0.0,0.0,47,0.00,,,0.00,WUHU216HW,2013-02-27 09:23:00,
2013-02-27 04:28:00,52.2,32.0,29.74,North,0,0.0,0.0,46,0.00,,,0.00,WUHU216HW,2013-02-27 09:28:00,
2013-02-27 04:33:00,52.2,32.5,29.74,North,0,0.0,0.0,47,0.00,,,0.00,WUHU216HW,2013-02-27 09:33:00,
2013-02-27 04:38:00,52.0,32.3,29.74,North,0,0.0,0.0,47,0.00,,,0.00,WUHU216HW,2013-02-27 09:38:00,
2013-02-27 04:43:00,51.8,32.1,29.75,North,0,0.0,0.0,47,0.00,,,0.00,WUHU216HW,2013-02-27 09:43:00,
2013-02-27 04:48:00,51.7,32.6,29.75,North,0,0.0,0.0,48,0.00,,,0.00,WUHU216HW,2013-02-27 09:48:00,
2013-02-27 04:53:00,51.5,32.4,29.75,North,0,0.0,0.0,48,0.00,,,0.00,WUHU216HW,2013-02-27 09:53:00,
2013-02-27 04:58:00,51.5,32.4,29.75,North,0,0.0,0.0,48,0.00,,,0.00,WUHU216HW,2013-02-27 09:58:00,
2013-02-27 05:04:00,51.5,32.9,29.75,North,0,0.0,0.0,49,0.00,,,0.00,WUHU216HW,2013-02-27 10:04:00,
2013-02-27 05:09:00,51.3,32.8,29.75,North,0,0.0,0.0,49,0.00,,,0.00,WUHU216HW,2013-02-27 10:09:00,
2013-02-27 05:14:00,51.3,32.8,29.75,North,0,0.0,0.0,49,0.00,,,0.00,WUHU216HW,2013-02-27 10:14:00,
2013-02-27 05:19:00,51.1,32.0,29.75,North,0,0.0,0.0,48,0.00,,,0.00,WUHU216HW,2013-02-27 10:19:00,
2013-02-27 05:24:00,50.9,32.0,29.74,North,0,0.0,0.0,48,0.00,,,0.00,WUHU216HW,2013-02-27 10:24:00,
2013-02-27 05:29:00,50.8,31.8,29.75,North,0,0.0,0.0,48,0.00,,,0.00,WUHU216HW,2013-02-27 10:29:00,
2013-02-27 05:34:00,50.8,31.2,29.75,North,0,0.0,0.0,47,0.00,,,0.00,WUHU216HW,2013-02-27 10:34:00,
2013-02-27 05:39:00,50.6,31.6,29.75,North,0,0.0,0.0,48,0.00,,,0.00,WUHU216HW,2013-02-27 10:39:00,
2013-02-27 05:44:00,50.6,31.6,29.76,North,0,0.0,0.0,48,0.00,,,0.00,WUHU216HW,2013-02-27 10:44:00,
2013-02-27 05:49:00,50.4,31.4,29.76,North,0,0.0,0.0,48,0.00,,,0.00,WUHU216HW,2013-02-27 10:49:00,
2013-02-27 05:54:00,50.4,31.4,29.76,North,0,0.0,0.0,48,0.00,,,0.00,WUHU216HW,2013-02-27 10:54:00,
2013-02-27 05:59:00,50.2,31.9,29.76,North,0,0.0,0.0,49,0.00,,,0.00,WUHU216HW,2013-02-27 10:59:00,
2013-02-27 06:04:00,50.2,31.9,29.76,North,0,0.0,0.0,49,0.00,,,0.00,WUHU216HW,2013-02-27 11:04:00,
2013-02-27 06:10:00,50.0,31.7,29.76,North,0,0.0,0.0,49,0.00,,,0.00,WUHU216HW,2013-02-27 11:10:00,
2013-02-27 06:15:00,50.0,31.2,29.76,North,0,0.0,0.0,48,0.00,,,0.00,WUHU216HW,2013-02-27 11:15:00,
2013-02-27 06:20:00,50.0,31.7,29.77,North,0,0.0,0.0,49,0.00,,,0.00,WUHU216HW,2013-02-27 11:20:00,
2013-02-27 06:25:00,49.9,31.5,29.77,North,0,0.0,0.0,49,0.00,,,0.00,WUHU216HW,2013-02-27 11:25:00,
2013-02-27 06:30:00,49.9,31.5,29.77,North,0,0.0,0.0,49,0.00,,,0.00,WUHU216HW,2013-02-27 11:30:00,
2013-02-27 06:35:00,49.9,31.5,29.77,North,0,0.0,0.0,49,0.00,,,0.00,WUHU216HW,2013-02-27 11:35:00,
2013-02-27 06:40:00,49.9,32.0,29.78,North,0,0.0,0.0,50,0.00,,,0.00,WUHU216HW,2013-02-27 11:40:00,
2013-02-27 06:45:00,49.9,31.5,29.78,North,0,0.0,0.0,49,0.00,,,0.00,WUHU216HW,2013-02-27 11:45:00,
2013-02-27 06:50:00,49.7,31.3,29.78,North,0,0.0,0.0,49,0.00,,,0.00,WUHU216HW,2013-02-27 11:50:00,
2013-02-27 06:55:00,49.7,31.3,29.78,North,0,0.0,0.0,49,0.00,,,0.00,WUHU216HW,2013-02-27 11:55:00,
2013-02-27 07:00:00,49.9,32.0,29.78,North,0,0.0,0.0,50,0.00,,,0.00,WUHU216HW,2013-02-27 12:00:00,
2013-02-27 07:05:00,50.0,32.2,29.78,North,0,0.0,0.0,50,0.00,,,0.00,WUHU216HW,2013-02-27 12:05:00,
2013-02-27 07:10:00,50.0,32.2,29.78,North,0,0.0,0.0,50,0.00,,,0.00,WUHU216HW,2013-02-27 12:10:00,
2013-02-27 07:15:00,50.2,32.4,29.78,North,0,0.0,0.0,50,0.00,,,0.00,WUHU216HW,2013-02-27 12:15:00,
2013-02-27 07:20:00,50.2,31.9,29.79,North,0,0.0,0.0,49,0.00,,,0.00,WUHU216HW,2013-02-27 12:20:00,
2013-02-27 07:25:00,50.2,31.9,29.79,North,0,0.0,0.0,49,0.00,,,0.00,WUHU216HW,2013-02-27 12:25:00,
2013-02-27 07:30:00,50.2,31.9,29.79,North,0,0.0,0.0,49,0.00,,,0.00,WUHU216HW,2013-02-27 12:30:00,
2013-02-27 07:35:00,50.4,31.4,29.80,North,0,0.0,0.0,48,0.00,,,0.00,WUHU216HW,2013-02-27 12:35:00,
2013-02-27 07:41:00,50.4,31.4,29.80,North,0,0.0,0.0,48,0.00,,,0.00,WUHU216HW,2013-02-27 12:41:00,
2013-02-27 07:46:00,50.6,31.6,29.80,North,0,0.0,0.0,48,0.00,,,0.00,WUHU216HW,2013-02-27 12:46:00,
2013-02-27 07:51:00,50.8,31.8,29.80,North,0,0.0,0.0,48,0.00,,,0.00,WUHU216HW,2013-02-27 12:51:00,
2013-02-27 07:56:00,50.6,32.7,29.81,North,0,0.0,0.0,50,0.00,,,0.00,WUHU216HW,2013-02-27 12:56:00,
2013-02-27 08:01:00,50.8,32.9,29.81,North,0,0.0,0.0,50,0.00,,,0.00,WUHU216HW,2013-02-27 13:01:00,
2013-02-27 08:06:00,50.8,33.3,29.81,North,0,0.0,0.0,51,0.00,,,0.00,WUHU216HW,2013-02-27 13:06:00,
2013-02-27 08:11:00,50.6,32.7,29.81,North,0,0.0,0.0,50,0.00,,,0.00,WUHU216HW,2013-02-27 13:11:00,
2013-02-27 08:16:00,50.8,33.8,29.82,North,0,0.0,0.0,52,0.00,,,0.00,WUHU216HW,2013-02-27 13:16:00,
2013-02-27 08:21:00,50.9,33.0,29.82,North,0,0.0,0.0,50,0.00,,,0.00,WUHU216HW,2013-02-27 13:21:00,
2013-02-27 08:26:00,50.9,33.5,29.82,North,0,0.0,0.0,51,0.00,,,0.00,WUHU216HW,2013-02-27 13:26:00,
2013-02-27 08:31:00,50.8,33.8,29.83,North,0,0.0,0.0,52,0.00,,,0.00,WUHU216HW,2013-02-27 13:31:00,
2013-02-27 08:37:00,50.8,33.8,29.83,North,0,0.0,0.0,52,0.00,,,0.00,WUHU216HW,2013-02-27 13:37:00,
2013-02-27 08:42:00,50.8,33.8,29.83,North,0,0.0,0.0,52,0.00,,,0.00,WUHU216HW,2013-02-27 13:42:00,
2013-02-27 08:47:00,51.1,34.1,29.83,North,0,0.0,0.0,52,0.00,,,0.00,WUHU216HW,2013-02-27 13:47:00,
2013-02-27 08:52:00,51.1,34.6,29.83,North,0,0.0,0.0,53,0.00,,,0.00,WUHU216HW,2013-02-27 13:52:00,
2013-02-27 09:03:00,51.5,34.4,29.83,North,0,0.0,0.0,52,0.00,,,0.00,WUHU216HW,2013-02-27 14:03:00,
2013-02-27 09:08:00,51.5,34.4,29.83,North,0,0.0,0.0,52,0.00,,,0.00,WUHU216HW,2013-02-27 14:08:00,
2013-02-27 09:31:00,51.8,35.6,29.83,North,0,0.0,0.0,54,0.00,,,0.00,WUHU216HW,2013-02-27 14:31:00,
2013-02-27 09:36:00,51.8,35.6,29.83,North,0,0.0,0.0,54,0.00,,,0.00,WUHU216HW,2013-02-27 14:36:00,
2013-02-27 10:00:00,52.2,36.0,29.85,North,0,0.0,0.0,54,0.00,,,0.00,WUHU216HW,2013-02-27 15:00:00,
2013-02-27 10:05:00,52.2,36.0,29.85,North,0,0.0,0.0,54,0.00,,,0.00,WUHU216HW,2013-02-27 15:05:00,
2013-02-27 10:30:00,53.1,37.3,29.85,North,0,0.0,0.0,55,0.00,,,0.00,WUHU216HW,2013-02-27 15:30:00,
2013-02-27 10:35:00,53.1,37.3,29.85,North,0,0.0,0.0,55,0.00,,,0.00,WUHU216HW,2013-02-27 15:35:00,
2013-02-27 11:00:00,54.4,38.0,29.84,North,0,0.0,0.0,54,0.00,,,0.00,WUHU216HW,2013-02-27 16:00:00,
2013-02-27 11:05:00,54.4,38.0,29.84,North,0,0.0,0.0,54,0.00,,,0.00,WUHU216HW,2013-02-27 16:05:00,
2013-02-27 11:30:00,56.2,40.1,29.85,North,0,0.0,0.0,55,0.00,,,0.00,WUHU216HW,2013-02-27 16:30:00,
2013-02-27 11:35:00,56.2,40.1,29.85,North,0,0.0,0.0,55,0.00,,,0.00,WUHU216HW,2013-02-27 16:35:00,
2013-02-27 12:00:00,57.8,41.7,29.83,North,0,0.0,0.0,55,0.00,,,0.00,WUHU216HW,2013-02-27 17:00:00,
2013-02-27 12:05:00,57.8,41.7,29.83,North,0,0.0,0.0,55,0.00,,,0.00,WUHU216HW,2013-02-27 17:05:00,
2013-02-27 12:30:00,59.2,42.0,29.81,North,0,0.0,0.0,53,0.00,,,0.00,WUHU216HW,2013-02-27 17:30:00,
2013-02-27 12:35:00,59.2,42.0,29.81,North,0,0.0,0.0,53,0.00,,,0.00,WUHU216HW,2013-02-27 17:35:00,
2013-02-27 13:00:00,58.0,41.9,29.81,North,0,0.0,0.0,55,0.00,,,0.00,WUHU216HW,2013-02-27 18:00:00,
2013-02-27 13:05:00,58.0,41.9,29.81,North,0,0.0,0.0,55,0.00,,,0.00,WUHU216HW,2013-02-27 18:05:00,
2013-02-27 13:30:00,56.3,39.9,29.80,North,0,0.0,0.0,54,0.00,,,0.00,WUHU216HW,2013-02-27 18:30:00,
2013-02-27 13:35:00,56.3,39.9,29.80,North,0,0.0,0.0,54,0.00,,,0.00,WUHU216HW,2013-02-27 18:35:00,
2013-02-27 14:00:00,56.2,39.7,29.80,North,0,0.0,0.0,54,0.00,,,0.00,WUHU216HW,2013-02-27 19:00:00,
2013-02-27 14:05:00,56.2,39.7,29.80,North,0,0.0,0.0,54,0.00,,,0.00,WUHU216HW,2013-02-27 19:05:00,
2013-02-27 14:30:00,57.2,40.8,29.80,North,0,0.0,0.0,54,0.00,,,0.00,WUHU216HW,2013-02-27 19:30:00,
2013-02-27 14:35:00,57.2,40.8,29.80,North,0,0.0,0.0,54,0.00,,,0.00,WUHU216HW,2013-02-27 19:35:00,
2013-02-27 15:00:00,56.5,40.1,29.80,North,0,0.0,0.0,54,0.00,,,0.00,WUHU216HW,2013-02-27 20:00:00,
2013-02-27 15:05:00,56.5,40.1,29.80,North,0,0.0,0.0,54,0.00,,,0.00,WUHU216HW,2013-02-27 20:05:00,
2013-02-27 15:30:00,56.9,40.9,29.80,North,0,0.0,0.0,55,0.00,,,0.00,WUHU216HW,2013-02-27 20:30:00,
2013-02-27 15:35:00,56.9,40.9,29.80,North,0,0.0,0.0,55,0.00,,,0.00,WUHU216HW,2013-02-27 20:35:00,
2013-02-27 16:00:00,55.4,39.0,29.80,North,0,0.0,0.0,54,0.00,,,0.00,WUHU216HW,2013-02-27 21:00:00,
2013-02-27 16:05:00,55.4,39.0,29.80,North,0,0.0,0.0,54,0.00,,,0.00,WUHU216HW,2013-02-27 21:05:00,
2013-02-27 16:30:00,54.5,37.2,29.80,North,0,0.0,0.0,52,0.00,,,0.00,WUHU216HW,2013-02-27 21:30:00,
2013-02-27 16:35:00,54.5,37.2,29.80,North,0,0.0,0.0,52,0.00,,,0.00,WUHU216HW,2013-02-27 21:35:00,
2013-02-27 17:00:00,53.5,33.7,29.79,North,0,0.0,0.0,47,0.00,,,0.00,WUHU216HW,2013-02-27 22:00:00,
2013-02-27 17:05:00,53.5,33.7,29.79,North,0,0.0,0.0,47,0.00,,,0.00,WUHU216HW,2013-02-27 22:05:00,
2013-02-27 17:30:00,53.1,32.8,29.79,North,0,0.0,0.0,46,0.00,,,0.00,WUHU216HW,2013-02-27 22:30:00,
2013-02-27 17:35:00,53.1,32.8,29.79,North,0,0.0,0.0,46,0.00,,,0.00,WUHU216HW,2013-02-27 22:35:00,
2013-02-27 18:00:00,52.9,32.1,29.78,North,0,0.0,0.0,45,0.00,,,0.00,WUHU216HW,2013-02-27 23:00:00,
2013-02-27 18:05:00,52.9,32.1,29.78,North,0,0.0,0.0,45,0.00,,,0.00,WUHU216HW,2013-02-27 23:05:00,
2013-02-27 18:30:00,52.9,32.1,29.80,North,0,0.0,0.0,45,0.00,,,0.00,WUHU216HW,2013-02-27 23:30:00,
2013-02-27 18:35:00,52.9,32.1,29.80,North,0,0.0,0.0,45,0.00,,,0.00,WUHU216HW,2013-02-27 23:35:00,
2013-02-27 19:00:00,52.7,31.9,29.79,North,0,0.0,0.0,45,0.00,,,0.00,WUHU216HW,2013-02-28 00:00:00,
2013-02-27 19:05:00,52.7,31.9,29.79,North,0,0.0,0.0,45,0.00,,,0.00,WUHU216HW,2013-02-28 00:05:00,
2013-02-27 19:30:00,52.7,31.9,29.79,North,0,0.0,0.0,45,0.00,,,0.00,WUHU216HW,2013-02-28 00:30:00,
2013-02-27 19:35:00,52.7,31.9,29.79,North,0,0.0,0.0,45,0.00,,,0.00,WUHU216HW,2013-02-28 00:35:00,
2013-02-27 20:00:00,52.6,31.7,29.79,North,0,0.0,0.0,45,0.00,,,0.00,WUHU216HW,2013-02-28 01:00:00,
2013-02-27 20:05:00,52.6,31.7,29.79,North,0,0.0,0.0,45,0.00,,,0.00,WUHU216HW,2013-02-28 01:05:00,
2013-02-27 20:30:00,52.6,31.7,29.79,North,0,0.0,0.0,45,0.00,,,0.00,WUHU216HW,2013-02-28 01:30:00,
2013-02-27 20:35:00,52.6,31.7,29.79,North,0,0.0,0.0,45,0.00,,,0.00,WUHU216HW,2013-02-28 01:35:00,
2013-02-27 21:00:00,52.2,30.8,29.79,North,0,0.0,0.0,44,0.00,,,0.00,WUHU216HW,2013-02-28 02:00:00,
2013-02-27 21:05:00,52.2,30.8,29.79,North,0,0.0,0.0,44,0.00,,,0.00,WUHU216HW,2013-02-28 02:05:00,
2013-02-27 21:30:00,52.6,31.7,29.80,North,0,0.0,0.0,45,0.00,,,0.00,WUHU216HW,2013-02-28 02:30:00,
2013-02-27 21:35:00,52.6,31.7,29.80,North,0,0.0,0.0,45,0.00,,,0.00,WUHU216HW,2013-02-28 02:35:00,
2013-02-27 22:00:00,52.4,31.0,29.80,North,0,0.0,0.0,44,0.00,,,0.00,WUHU216HW,2013-02-28 03:00:00,
2013-02-27 22:05:00,52.4,31.0,29.80,North,0,0.0,0.0,44,0.00,,,0.00,WUHU216HW,2013-02-28 03:05:00,
2013-02-27 22:30:00,52.4,31.5,29.80,North,0,0.0,0.0,45,0.00,,,0.00,WUHU216HW,2013-02-28 03:30:00,
2013-02-27 22:35:00,52.4,31.5,29.80,North,0,0.0,0.0,45,0.00,,,0.00,WUHU216HW,2013-02-28 03:35:00,
2013-02-27 23:00:00,52.4,31.5,29.80,North,0,0.0,0.0,45,0.00,,,0.00,WUHU216HW,2013-02-28 04:00:00,
2013-02-27 23:05:00,52.4,31.5,29.80,North,0,0.0,0.0,45,0.00,,,0.00,WUHU216HW,2013-02-28 04:05:00,
2013-02-27 23:30:00,52.2,32.0,29.78,North,0,0.0,0.0,46,0.00,,,0.00,WUHU216HW,2013-02-28 04:30:00,
2013-02-27 23:35:00,52.2,32.0,29.78,North,0,0.0,0.0,46,0.00,,,0.00,WUHU216HW,2013-02-28 04:35:00,